Simultaneous Nadir Overpasses (SNOs) Predictions

Prediction of SNOs between GOES-17 and METOP-A Satellite Orbit:

Table of predicted SNOs for the next 14.0 days since TLE Epoch: 5/8/2020
Index Date Time (GOES-17) GOES-17 Lat,Lon METOP-A Lat,Lon Distance(km) Time Diff (sec)
1 05/09/2020 17:52:42 0.03,-137.20 0.13,-137.64 50.23 80
2 05/12/2020 05:53:43 -0.02,-137.17 -0.05,-137.29 13.37 80
3 05/14/2020 17:51:55 0.02,-137.17 -0.03,-136.90 30.83 80
4 05/16/2020 06:10:55 -0.01,-137.15 -0.99,-141.53 499.46 80
5 05/17/2020 05:47:36 -0.01,-137.14 0.12,-136.55 67.03 80
6 05/18/2020 18:06:27 0.01,-137.14 0.91,-141.14 456.09 80
7 05/19/2020 17:48:27 0.01,-137.13 -0.20,-136.16 110.14 80
8 05/21/2020 06:07:28 -0.01,-137.09 -0.82,-140.79 421.01 80
9 05/22/2020 05:44:08 -0.01,-137.08 0.30,-135.81 144.69 80




NCC Satellite Simultaneous Nadir Overpasses (SNOs) Prediction Service
